Location: *
(46.4833°N, 7.6667°E)
Time: 09:42:06
(UTC+00:00)

Cosmos 1943 Rocket - Pass Details

Date: 27 February 2020
Orbit: 813 x 842 km, 71.0° (Epoch: 09 April)

Event Time Altitude Azimuth Distance (km) Brightness Sun altitude
Rises 17:52:10 0° 225° (SW) 3,356 6.2 -7.8°
Reaches altitude 10° 17:54:43 10° 232° (SW) 2,422 5.5 -8.2°
Maximum altitude 18:00:00 44° 304° (NW) 1,131 3.4 -9.1°
Drops below altitude 10° 18:05:16 10° 16° (NNE) 2,419 4.4 -10.0°
Sets 18:07:49 0° 23° (NNE) 3,353 5.1 -10.5°
